date,time,SUV Intensity [MED/Hr],UV Index,Daily total [MED],Since Last [MED]
19/04/2022,00:07:06,0.001,0.0,0.0,0.0
19/04/2022,00:08:05,-0.001,0.0,0.0,0.0
19/04/2022,00:09:05,-0.000,0.0,0.0,0.0
19/04/2022,00:10:05,-0.001,0.0,0.0,0.0
19/04/2022,00:11:05,-0.001,0.0,0.0,0.0
19/04/2022,00:12:05,0.000,0.0,0.0,0.0
19/04/2022,00:13:05,-0.001,0.0,0.0,0.0
19/04/2022,00:14:05,-0.001,0.0,0.0,0.0
19/04/2022,00:15:05,0.000,0.0,0.0,0.0
19/04/2022,00:16:05,0.000,0.0,0.0,0.0
19/04/2022,00:17:13,0.000,0.0,0.0,0.0
19/04/2022,00:19:06,0.000,0.0,0.0,0.0
19/04/2022,00:20:05,0.000,0.0,0.0,0.0
19/04/2022,00:21:05,-0.001,0.0,0.0,0.0
19/04/2022,00:22:05,0.000,0.0,0.0,0.0
19/04/2022,00:23:05,0.000,0.0,0.0,0.0
19/04/2022,00:24:05,0.001,0.0,0.0,0.0
19/04/2022,00:25:05,-0.000,0.0,0.0,0.0
19/04/2022,00:26:05,0.001,0.0,0.0,0.0
19/04/2022,00:27:13,-0.001,0.0,0.0,0.0
19/04/2022,00:29:05,-0.000,0.0,0.0,0.0
19/04/2022,00:30:05,-0.001,0.0,0.0,0.0
19/04/2022,00:31:06,-0.000,0.0,0.0,0.0
19/04/2022,00:32:06,-0.001,0.0,0.0,0.0
19/04/2022,00:33:04,0.000,0.0,0.0,0.0
19/04/2022,00:34:05,0.000,0.0,0.0,0.0
19/04/2022,00:35:05,0.000,0.0,0.0,0.0
19/04/2022,00:36:06,0.000,0.0,0.0,0.0
19/04/2022,00:37:05,0.000,0.0,0.0,0.0
19/04/2022,00:38:05,0.001,0.0,0.0,0.0
19/04/2022,00:39:05,0.000,0.0,0.0,0.0
19/04/2022,00:40:05,0.000,0.0,0.0,0.0
19/04/2022,00:41:05,0.000,0.0,0.0,0.0
19/04/2022,00:42:21,0.000,0.0,0.0,0.0
19/04/2022,00:44:05,0.000,0.0,0.0,0.0
19/04/2022,00:45:05,0.001,0.0,0.0,0.0
19/04/2022,00:46:05,0.000,0.0,0.0,0.0
19/04/2022,00:47:05,0.000,0.0,0.0,0.0
19/04/2022,00:48:05,0.000,0.0,0.0,0.0
19/04/2022,00:49:05,0.000,0.0,0.0,0.0
19/04/2022,00:50:05,0.000,0.0,0.0,0.0
19/04/2022,00:51:05,0.000,0.0,0.0,0.0
19/04/2022,00:52:05,0.000,0.0,0.0,0.0
19/04/2022,00:53:05,0.000,0.0,0.0,0.0
19/04/2022,00:54:14,0.001,0.0,0.0,0.0
19/04/2022,00:55:05,0.000,0.0,0.0,0.0
19/04/2022,00:56:05,0.000,0.0,0.0,0.0
19/04/2022,00:57:05,-0.001,0.0,0.0,0.0
19/04/2022,00:58:05,0.001,0.0,0.0,0.0
19/04/2022,00:59:05,0.000,0.0,0.0,0.0
19/04/2022,01:00:05,-0.000,0.0,0.0,0.0
19/04/2022,01:01:05,0.000,0.0,0.0,0.0
19/04/2022,01:02:06,0.000,0.0,0.0,0.0
19/04/2022,01:03:05,0.000,0.0,0.0,0.0
19/04/2022,01:04:13,0.001,0.0,0.0,0.0
19/04/2022,01:05:04,0.000,0.0,0.0,0.0
19/04/2022,01:06:05,0.001,0.0,0.0,0.0
19/04/2022,01:07:14,0.001,0.0,0.0,0.0
19/04/2022,01:08:05,-0.000,0.0,0.0,0.0
19/04/2022,01:09:05,0.001,0.0,0.0,0.0
19/04/2022,01:10:13,-0.000,0.0,0.0,0.0
19/04/2022,01:11:05,0.001,0.0,0.0,0.0
19/04/2022,01:12:05,0.001,0.0,0.0,0.0
19/04/2022,01:13:05,0.001,0.0,0.0,0.0
19/04/2022,01:14:05,0.001,0.0,0.0,0.0
19/04/2022,01:15:05,0.001,0.0,0.0,0.0
19/04/2022,01:16:05,0.001,0.0,0.0,0.0
19/04/2022,01:17:05,0.001,0.0,0.0,0.0
19/04/2022,01:18:05,0.001,0.0,0.0,0.0
19/04/2022,01:19:05,0.000,0.0,0.0,0.0
19/04/2022,01:20:13,0.001,0.0,0.0,0.0
19/04/2022,01:22:06,0.001,0.0,0.0,0.0
19/04/2022,01:23:13,0.001,0.0,0.0,0.0
19/04/2022,01:25:06,0.001,0.0,0.0,0.0
19/04/2022,01:26:05,-0.000,0.0,0.0,0.0
19/04/2022,01:27:05,0.001,0.0,0.0,0.0
19/04/2022,01:28:05,0.001,0.0,0.0,0.0
19/04/2022,01:29:05,0.001,0.0,0.0,0.0
19/04/2022,01:30:05,0.001,0.0,0.0,0.0
19/04/2022,01:31:05,0.001,0.0,0.0,0.0
19/04/2022,01:32:05,0.001,0.0,0.0,0.0
19/04/2022,01:33:13,0.001,0.0,0.0,0.0
19/04/2022,01:34:05,0.000,0.0,0.0,0.0
19/04/2022,01:35:06,0.001,0.0,0.0,0.0
19/04/2022,01:36:05,0.001,0.0,0.0,0.0
19/04/2022,01:37:05,0.001,0.0,0.0,0.0
19/04/2022,01:38:05,0.001,0.0,0.0,0.0
19/04/2022,01:39:06,0.000,0.0,0.0,0.0
19/04/2022,01:40:05,0.001,0.0,0.0,0.0
19/04/2022,01:41:05,0.001,0.0,0.0,0.0
19/04/2022,01:42:05,0.001,0.0,0.0,0.0
19/04/2022,01:43:05,0.001,0.0,0.0,0.0
19/04/2022,01:44:05,0.001,0.0,0.0,0.0
19/04/2022,01:45:05,0.001,0.0,0.0,0.0
19/04/2022,01:46:05,0.001,0.0,0.0,0.0
19/04/2022,01:47:05,0.001,0.0,0.0,0.0
19/04/2022,01:48:05,0.000,0.0,0.0,0.0
19/04/2022,01:49:06,0.001,0.0,0.0,0.0
19/04/2022,01:50:05,0.001,0.0,0.0,0.0
19/04/2022,01:51:05,0.001,0.0,0.0,0.0
19/04/2022,01:52:05,0.001,0.0,0.0,0.0
19/04/2022,01:53:05,0.001,0.0,0.0,0.0
19/04/2022,01:54:05,-0.000,0.0,0.0,0.0
19/04/2022,01:55:05,0.001,0.0,0.0,0.0
19/04/2022,01:56:05,0.001,0.0,0.0,0.0
19/04/2022,01:57:06,0.001,0.0,0.0,0.0
19/04/2022,01:58:05,0.001,0.0,0.0,0.0
19/04/2022,01:59:05,0.001,0.0,0.0,0.0
19/04/2022,02:00:05,0.001,0.0,0.0,0.0
19/04/2022,02:01:05,0.001,0.0,0.0,0.0
19/04/2022,02:02:06,0.001,0.0,0.0,0.0
19/04/2022,02:03:07,0.001,0.0,0.0,0.0
19/04/2022,02:04:06,0.001,0.0,0.0,0.0
19/04/2022,02:05:05,0.001,0.0,0.0,0.0
19/04/2022,02:06:05,0.001,0.0,0.0,0.0
19/04/2022,02:07:05,0.001,0.0,0.0,0.0
19/04/2022,02:08:07,0.001,0.0,0.0,0.0
19/04/2022,02:09:06,0.001,0.0,0.0,0.0
19/04/2022,02:10:05,0.001,0.0,0.0,0.0
19/04/2022,02:11:05,0.001,0.0,0.0,0.0
19/04/2022,02:12:05,0.001,0.0,0.0,0.0
19/04/2022,02:13:05,0.001,0.0,0.0,0.0
19/04/2022,02:14:14,0.001,0.0,0.0,0.0
19/04/2022,02:15:05,0.001,0.0,0.0,0.0
19/04/2022,02:16:05,0.001,0.0,0.0,0.0
19/04/2022,02:17:05,0.001,0.0,0.0,0.0
19/04/2022,02:18:05,0.001,0.0,0.0,0.0
19/04/2022,02:19:05,0.001,0.0,0.0,0.0
19/04/2022,02:20:13,0.001,0.0,0.0,0.0
19/04/2022,02:22:06,0.001,0.0,0.0,0.0
19/04/2022,02:23:06,0.001,0.0,0.0,0.0
19/04/2022,02:24:05,0.001,0.0,0.0,0.0
19/04/2022,02:25:05,0.001,0.0,0.0,0.0
19/04/2022,02:26:06,0.001,0.0,0.0,0.0
19/04/2022,02:27:30,0.001,0.0,0.0,0.0
19/04/2022,02:29:06,0.001,0.0,0.0,0.0
19/04/2022,02:30:13,0.001,0.0,0.0,0.0
19/04/2022,02:32:06,0.001,0.0,0.0,0.0
19/04/2022,02:33:05,0.001,0.0,0.0,0.0
19/04/2022,02:34:05,0.001,0.0,0.0,0.0
19/04/2022,02:35:05,0.001,0.0,0.0,0.0
19/04/2022,02:36:05,0.001,0.0,0.0,0.0
19/04/2022,02:37:05,0.001,0.0,0.0,0.0
19/04/2022,02:38:05,0.001,0.0,0.0,0.0
19/04/2022,02:39:05,0.001,0.0,0.0,0.0
19/04/2022,02:40:13,0.001,0.0,0.0,0.0
19/04/2022,02:42:06,0.001,0.0,0.0,0.0
19/04/2022,02:43:06,0.001,0.0,0.0,0.0
19/04/2022,02:44:06,0.001,0.0,0.0,0.0
19/04/2022,02:45:05,0.001,0.0,0.0,0.0
19/04/2022,02:46:05,0.001,0.0,0.0,0.0
19/04/2022,02:47:06,0.001,0.0,0.0,0.0
19/04/2022,02:48:05,0.001,0.0,0.0,0.0
19/04/2022,02:49:05,0.001,0.0,0.0,0.0
19/04/2022,02:53:18,0.001,0.0,0.0,0.0
19/04/2022,02:54:05,0.001,0.0,0.0,0.0
19/04/2022,02:55:05,0.001,0.0,0.0,0.0
19/04/2022,02:56:05,0.001,0.0,0.0,0.0
19/04/2022,02:57:05,0.001,0.0,0.0,0.0
19/04/2022,02:58:05,0.001,0.0,0.0,0.0
19/04/2022,02:59:05,0.001,0.0,0.0,0.0
19/04/2022,03:00:05,0.001,0.0,0.0,0.0
19/04/2022,03:01:05,0.001,0.0,0.0,0.0
19/04/2022,03:02:05,0.001,0.0,0.0,0.0
19/04/2022,03:03:13,0.001,0.0,0.0,0.0
19/04/2022,03:05:06,0.001,0.0,0.0,0.0
19/04/2022,03:06:05,0.001,0.0,0.0,0.0
19/04/2022,03:07:05,0.001,0.0,0.0,0.0
19/04/2022,03:08:13,0.001,0.0,0.0,0.0
19/04/2022,03:10:06,0.001,0.0,0.0,0.0
19/04/2022,03:11:07,0.001,0.0,0.0,0.0
19/04/2022,03:12:05,0.001,0.0,0.0,0.0
19/04/2022,03:13:14,0.001,0.0,0.0,0.0
19/04/2022,03:15:15,0.001,0.0,0.0,0.0
19/04/2022,03:17:05,0.001,0.0,0.0,0.0
19/04/2022,03:18:06,0.001,0.0,0.0,0.0
19/04/2022,03:19:06,0.001,0.0,0.0,0.0
19/04/2022,03:20:05,0.001,0.0,0.0,0.0
19/04/2022,03:21:13,0.001,0.0,0.0,0.0
19/04/2022,03:23:06,0.001,0.0,0.0,0.0
19/04/2022,03:24:13,0.001,0.0,0.0,0.0
19/04/2022,03:26:06,0.001,0.0,0.0,0.0
19/04/2022,03:27:05,0.001,0.0,0.0,0.0
19/04/2022,03:28:06,0.001,0.0,0.0,0.0
19/04/2022,03:29:06,0.001,0.0,0.0,0.0
19/04/2022,03:30:14,0.001,0.0,0.0,0.0
19/04/2022,03:31:05,0.001,0.0,0.0,0.0
19/04/2022,03:32:06,0.001,0.0,0.0,0.0
19/04/2022,03:33:06,0.001,0.0,0.0,0.0
19/04/2022,03:34:05,0.001,0.0,0.0,0.0
19/04/2022,03:35:05,0.001,0.0,0.0,0.0
19/04/2022,03:36:05,0.001,0.0,0.0,0.0
19/04/2022,03:37:05,0.001,0.0,0.0,0.0
19/04/2022,03:38:05,0.001,0.0,0.0,0.0
19/04/2022,03:39:06,0.001,0.0,0.0,0.0
19/04/2022,03:40:17,0.001,0.0,0.0,0.0
19/04/2022,03:42:06,0.001,0.0,0.0,0.0
19/04/2022,03:43:05,0.001,0.0,0.0,0.0
19/04/2022,03:44:06,0.001,0.0,0.0,0.0
19/04/2022,03:45:06,0.001,0.0,0.0,0.0
19/04/2022,03:46:05,0.001,0.0,0.0,0.0
19/04/2022,03:47:05,0.001,0.0,0.0,0.0
19/04/2022,03:48:05,0.001,0.0,0.0,0.0
19/04/2022,03:49:05,0.001,0.0,0.0,0.0
19/04/2022,03:50:05,0.001,0.0,0.0,0.0
19/04/2022,03:51:05,0.001,0.0,0.0,0.0
19/04/2022,03:52:06,0.001,0.0,0.0,0.0
19/04/2022,03:53:06,0.001,0.0,0.0,0.0
19/04/2022,03:54:13,0.001,0.0,0.0,0.0
19/04/2022,03:55:04,0.001,0.0,0.0,0.0
19/04/2022,03:56:07,0.001,0.0,0.0,0.0
19/04/2022,03:57:05,0.001,0.0,0.0,0.0
19/04/2022,03:58:05,0.001,0.0,0.0,0.0
19/04/2022,03:59:06,0.001,0.0,0.0,0.0
19/04/2022,04:00:06,0.001,0.0,0.0,0.0
19/04/2022,04:01:05,0.001,0.0,0.0,0.0
19/04/2022,04:02:05,0.001,0.0,0.0,0.0
19/04/2022,04:03:06,0.001,0.0,0.0,0.0
19/04/2022,04:04:14,0.001,0.0,0.0,0.0
19/04/2022,04:06:06,0.001,0.0,0.0,0.0
19/04/2022,04:07:05,0.003,0.0,0.0,0.0
19/04/2022,04:08:06,0.001,0.0,0.0,0.0
19/04/2022,04:09:06,0.001,0.0,0.0,0.0
19/04/2022,04:10:06,0.002,0.0,0.0,0.0
19/04/2022,04:11:06,0.002,0.0,0.0,0.0
19/04/2022,04:12:06,0.002,0.0,0.0,0.0
19/04/2022,04:13:06,0.001,0.0,0.0,0.0
19/04/2022,04:14:14,0.001,0.0,0.0,0.0
19/04/2022,04:15:05,0.001,0.0,0.0,0.0
19/04/2022,04:16:05,0.001,0.0,0.0,0.0
19/04/2022,04:17:06,0.001,0.0,0.0,0.0
19/04/2022,04:18:07,0.001,0.0,0.0,0.0
19/04/2022,04:19:05,0.001,0.0,0.0,0.0
19/04/2022,04:20:06,0.001,0.0,0.0,0.0
19/04/2022,04:21:05,0.002,0.0,0.0,0.0
19/04/2022,04:22:05,0.001,0.0,0.0,0.0
19/04/2022,04:23:06,0.002,0.0,0.0,0.0
19/04/2022,04:24:05,0.001,0.0,0.0,0.0
19/04/2022,04:25:06,0.001,0.0,0.0,0.0
19/04/2022,04:26:06,0.001,0.0,0.0,0.0
19/04/2022,04:27:05,0.001,0.0,0.0,0.0
19/04/2022,04:28:06,0.001,0.0,0.0,0.0
19/04/2022,04:29:06,0.001,0.0,0.0,0.0
19/04/2022,04:30:05,0.001,0.0,0.0,0.0
19/04/2022,04:31:06,0.002,0.0,0.0,0.0
19/04/2022,04:32:05,0.002,0.0,0.0,0.0
19/04/2022,04:33:05,0.001,0.0,0.0,0.0
19/04/2022,04:34:05,0.001,0.0,0.0,0.0
19/04/2022,04:35:06,0.001,0.0,0.0,0.0
19/04/2022,04:36:06,0.002,0.0,0.0,0.0
19/04/2022,04:37:05,0.002,0.0,0.0,0.0
19/04/2022,04:38:15,0.002,0.0,0.0,0.0
19/04/2022,04:40:06,0.002,0.0,0.0,0.0
19/04/2022,04:41:05,0.001,0.0,0.0,0.0
19/04/2022,04:42:06,0.002,0.0,0.0,0.0
19/04/2022,04:43:05,0.002,0.0,0.0,0.0
19/04/2022,04:44:05,0.002,0.0,0.0,0.0
19/04/2022,04:45:06,0.002,0.0,0.0,0.0
19/04/2022,04:46:05,0.001,0.0,0.0,0.0
19/04/2022,04:47:06,0.002,0.0,0.0,0.0
19/04/2022,04:48:05,0.002,0.0,0.0,0.0
19/04/2022,04:49:05,0.002,0.0,0.0,0.0
19/04/2022,04:50:06,0.002,0.0,0.0,0.0
19/04/2022,04:51:05,0.002,0.0,0.0,0.0
19/04/2022,04:52:05,0.003,0.0,0.0,0.0
19/04/2022,04:53:06,0.002,0.0,0.0,0.0
19/04/2022,04:54:05,0.001,0.0,0.0,0.0
19/04/2022,04:55:14,0.002,0.0,0.0,0.0
19/04/2022,04:57:06,0.002,0.0,0.0,0.0
19/04/2022,04:58:14,0.003,0.0,0.0,0.0
19/04/2022,05:00:07,0.003,0.0,0.0,0.0
19/04/2022,05:01:13,0.003,0.0,0.0,0.0
19/04/2022,05:02:05,0.003,0.0,0.0,0.0
19/04/2022,05:03:05,0.003,0.0,0.0,0.0
19/04/2022,05:04:05,0.002,0.0,0.0,0.0
19/04/2022,05:05:05,0.003,0.0,0.0,0.0
19/04/2022,05:06:06,0.003,0.0,0.0,0.0
19/04/2022,05:07:06,0.003,0.0,0.0,0.0
19/04/2022,05:08:06,0.004,0.0,0.0,0.0
19/04/2022,05:09:05,0.004,0.0,0.0,0.0
19/04/2022,05:10:06,0.004,0.0,0.0,0.0
19/04/2022,05:11:05,0.004,0.0,0.0,0.0
19/04/2022,05:12:06,0.004,0.0,0.0,0.0
19/04/2022,05:13:06,0.005,0.0,0.0,0.0
19/04/2022,05:14:05,0.005,0.0,0.0,0.0
19/04/2022,05:15:05,0.005,0.0,0.0,0.0
19/04/2022,05:16:06,0.005,0.0,0.0,0.0
19/04/2022,05:17:05,0.005,0.0,0.0,0.0
19/04/2022,05:18:06,0.005,0.0,0.0,0.0
19/04/2022,05:19:14,0.006,0.0,0.0,0.0
19/04/2022,05:20:05,0.006,0.0,0.0,0.0
19/04/2022,05:21:06,0.006,0.0,0.0,0.0
19/04/2022,05:22:05,0.007,0.0,0.0,0.0
19/04/2022,05:23:05,0.007,0.0,0.0,0.0
19/04/2022,05:24:06,0.007,0.0,0.0,0.0
19/04/2022,05:25:05,0.007,0.0,0.0,0.0
19/04/2022,05:26:05,0.007,0.0,0.001,0.001
19/04/2022,05:27:05,0.007,0.0,0.001,0.0
19/04/2022,05:28:05,0.008,0.0,0.001,0.0
19/04/2022,05:29:14,0.008,0.0,0.001,0.0
19/04/2022,05:30:06,0.009,0.0,0.001,0.0
19/04/2022,05:31:06,0.009,0.0,0.001,0.0
19/04/2022,05:32:06,0.009,0.0,0.001,0.0
19/04/2022,05:33:06,0.010,0.0,0.002,0.001
19/04/2022,05:34:06,0.010,0.0,0.002,0.0
19/04/2022,05:35:05,0.011,0.0,0.002,0.0
19/04/2022,05:36:05,0.010,0.0,0.002,0.0
19/04/2022,05:37:06,0.011,0.0,0.002,0.0
19/04/2022,05:38:06,0.011,0.0,0.002,0.0
19/04/2022,05:39:06,0.012,0.0,0.003,0.001
19/04/2022,05:40:05,0.013,0.0,0.003,0.0
19/04/2022,05:41:05,0.011,0.0,0.003,0.0
19/04/2022,05:42:14,0.014,0.0,0.003,0.0
19/04/2022,05:44:06,0.015,0.0,0.004,0.001
19/04/2022,05:45:06,0.014,0.0,0.004,0.0
19/04/2022,05:46:05,0.015,0.0,0.004,0.0
19/04/2022,05:47:06,0.015,0.0,0.004,0.0
19/04/2022,05:48:05,0.016,0.0,0.005,0.001
19/04/2022,05:49:05,0.017,0.0,0.005,0.0
19/04/2022,05:50:05,0.017,0.0,0.005,0.0
19/04/2022,05:51:06,0.018,0.0,0.006,0.001
19/04/2022,05:52:06,0.018,0.0,0.006,0.0
19/04/2022,05:53:06,0.019,0.0,0.006,0.0
19/04/2022,05:54:05,0.021,0.0,0.006,0.0
19/04/2022,05:55:06,0.021,0.0,0.007,0.001
19/04/2022,05:56:05,0.021,0.0,0.007,0.0
19/04/2022,05:57:06,0.022,0.0,0.007,0.0
19/04/2022,05:58:06,0.022,0.0,0.008,0.001
19/04/2022,05:59:06,0.023,0.0,0.008,0.0
19/04/2022,06:00:15,0.024,0.0,0.009,0.001
19/04/2022,06:02:06,0.025,0.0,0.009,0.0
19/04/2022,06:03:06,0.026,0.0,0.01,0.001
19/04/2022,06:04:05,0.027,0.0,0.01,0.0
19/04/2022,06:05:06,0.028,0.0,0.011,0.001
19/04/2022,06:06:06,0.029,0.0,0.011,0.0
19/04/2022,06:07:05,0.030,0.0,0.012,0.001
19/04/2022,06:08:06,0.030,0.0,0.012,0.0
19/04/2022,06:09:06,0.031,0.0,0.013,0.001
19/04/2022,06:10:14,0.032,0.0,0.013,0.0
19/04/2022,06:11:06,0.034,0.0,0.014,0.001
19/04/2022,06:12:05,0.034,0.0,0.014,0.0
19/04/2022,06:13:13,0.034,0.0,0.015,0.001
19/04/2022,06:15:07,0.036,0.0,0.016,0.001
19/04/2022,06:16:06,0.037,0.0,0.017,0.001
19/04/2022,06:17:06,0.038,0.0,0.017,0.0
19/04/2022,06:18:05,0.039,0.0,0.018,0.001
19/04/2022,06:19:06,0.040,0.0,0.019,0.001
19/04/2022,06:20:06,0.040,0.0,0.019,0.0
19/04/2022,06:21:14,0.041,0.0,0.02,0.001
19/04/2022,06:23:06,0.043,0.0,0.021,0.001
19/04/2022,06:24:06,0.044,0.0,0.022,0.001
19/04/2022,06:25:06,0.045,0.0,0.023,0.001
19/04/2022,06:26:06,0.046,0.0,0.024,0.001
19/04/2022,06:27:05,0.047,0.0,0.024,0.0
19/04/2022,06:28:06,0.047,0.0,0.025,0.001
19/04/2022,06:29:05,0.048,0.0,0.026,0.001
19/04/2022,06:30:05,0.050,0.0,0.027,0.001
19/04/2022,06:31:05,0.049,0.0,0.028,0.001
19/04/2022,06:32:06,0.050,0.0,0.028,0.0
19/04/2022,06:33:14,0.051,0.0,0.029,0.001
19/04/2022,06:35:06,0.053,0.0,0.031,0.002
19/04/2022,06:36:06,0.051,0.0,0.032,0.001
19/04/2022,06:37:06,0.053,0.0,0.033,0.001
19/04/2022,06:38:06,0.054,0.0,0.034,0.001
19/04/2022,06:39:08,0.054,0.0,0.035,0.001
19/04/2022,06:40:05,0.054,0.0,0.035,0.0
19/04/2022,06:41:06,0.056,0.0,0.036,0.001
19/04/2022,06:42:06,0.057,0.0,0.037,0.001
19/04/2022,06:43:06,0.058,0.0,0.038,0.001
19/04/2022,06:44:05,0.059,0.0,0.039,0.001
19/04/2022,06:45:05,0.060,0.0,0.04,0.001
19/04/2022,06:46:06,0.060,0.0,0.041,0.001
19/04/2022,06:47:05,0.062,0.0,0.042,0.001
19/04/2022,06:48:05,0.063,0.0,0.043,0.001
19/04/2022,06:49:06,0.063,0.0,0.044,0.001
19/04/2022,06:50:05,0.065,0.0,0.045,0.001
19/04/2022,06:51:05,0.066,0.0,0.047,0.002
19/04/2022,06:52:06,0.068,0.0,0.048,0.001
19/04/2022,06:53:06,0.070,0.0,0.049,0.001
19/04/2022,06:54:05,0.073,0.0,0.05,0.001
19/04/2022,06:55:14,0.076,0.0,0.051,0.001
19/04/2022,06:56:06,0.078,0.0,0.052,0.001
19/04/2022,06:57:06,0.081,0.0,0.054,0.002
19/04/2022,06:58:05,0.083,0.0,0.055,0.001
19/04/2022,06:59:06,0.084,0.0,0.057,0.002
19/04/2022,07:00:06,0.086,0.0,0.058,0.001
19/04/2022,07:01:05,0.087,0.0,0.059,0.001
19/04/2022,07:02:06,0.089,0.0,0.061,0.002
19/04/2022,07:03:05,0.093,0.0,0.062,0.001
19/04/2022,07:04:05,0.099,0.0,0.064,0.002
19/04/2022,07:05:14,0.100,0.0,0.066,0.002
19/04/2022,07:06:06,0.104,0.0,0.067,0.001
19/04/2022,07:07:06,0.108,0.0,0.069,0.002
19/04/2022,07:08:06,0.111,0.0,0.071,0.002
19/04/2022,07:09:07,0.114,0.0,0.073,0.002
19/04/2022,07:10:05,0.117,0.0,0.075,0.002
19/04/2022,07:11:06,0.119,0.0,0.077,0.002
19/04/2022,07:12:06,0.118,0.0,0.079,0.002
19/04/2022,07:13:06,0.115,0.0,0.081,0.002
19/04/2022,07:14:06,0.113,0.0,0.083,0.002
19/04/2022,07:15:14,0.108,0.0,0.085,0.002
19/04/2022,07:17:14,0.099,0.0,0.088,0.003
19/04/2022,07:19:07,0.088,0.0,0.091,0.003
19/04/2022,07:20:06,0.083,0.0,0.092,0.001
19/04/2022,07:21:06,0.080,0.0,0.094,0.002
19/04/2022,07:22:05,0.075,0.0,0.095,0.001
19/04/2022,07:23:06,0.071,0.0,0.096,0.001
19/04/2022,07:24:06,0.068,0.0,0.097,0.001
19/04/2022,07:25:06,0.064,0.0,0.099,0.002
19/04/2022,07:26:06,0.060,0.0,0.1,0.001
19/04/2022,07:27:05,0.058,0.0,0.101,0.001
19/04/2022,07:28:05,0.055,0.0,0.102,0.001
19/04/2022,07:29:06,0.053,0.0,0.102,0.0
19/04/2022,07:30:06,0.051,0.0,0.103,0.001
19/04/2022,07:31:05,0.051,0.0,0.104,0.001
19/04/2022,07:32:06,0.048,0.0,0.105,0.001
19/04/2022,07:33:16,0.049,0.0,0.106,0.001
19/04/2022,07:35:06,0.050,0.0,0.107,0.001
19/04/2022,07:36:05,0.051,0.0,0.108,0.001
19/04/2022,07:37:06,0.052,0.0,0.109,0.001
19/04/2022,07:38:06,0.055,0.0,0.11,0.001
19/04/2022,07:39:06,0.057,0.0,0.111,0.001
19/04/2022,07:40:06,0.061,0.0,0.112,0.001
19/04/2022,07:41:06,0.064,0.0,0.113,0.001
19/04/2022,07:42:06,0.068,0.0,0.114,0.001
19/04/2022,07:43:14,0.073,0.0,0.115,0.001
19/04/2022,07:44:06,0.077,0.0,0.116,0.001
19/04/2022,07:45:06,0.083,0.0,0.118,0.002
19/04/2022,07:46:06,0.088,0.0,0.119,0.001
19/04/2022,07:47:06,0.093,0.0,0.121,0.002
19/04/2022,07:48:06,0.098,0.0,0.122,0.001
19/04/2022,07:49:06,0.103,0.0,0.124,0.002
19/04/2022,07:50:05,0.108,0.0,0.126,0.002
19/04/2022,07:51:06,0.114,0.0,0.128,0.002
19/04/2022,07:52:06,0.118,0.0,0.13,0.002
19/04/2022,07:53:05,0.123,0.0,0.132,0.002
19/04/2022,07:54:06,0.128,0.0,0.134,0.002
19/04/2022,07:55:06,0.132,0.0,0.136,0.002
19/04/2022,07:56:06,0.135,0.0,0.138,0.002
19/04/2022,07:57:06,0.138,0.0,0.14,0.002
19/04/2022,07:58:06,0.143,0.0,0.143,0.003
19/04/2022,07:59:06,0.147,0.0,0.145,0.002
19/04/2022,08:00:06,0.152,0.0,0.148,0.003
19/04/2022,08:01:06,0.154,0.0,0.15,0.002
19/04/2022,08:02:14,0.154,0.0,0.153,0.003
19/04/2022,08:04:06,0.152,0.0,0.158,0.005
19/04/2022,08:05:06,0.153,0.0,0.16,0.002
19/04/2022,08:06:06,0.154,0.0,0.163,0.003
19/04/2022,08:07:06,0.158,0.0,0.165,0.002
19/04/2022,08:08:06,0.163,0.0,0.168,0.003
19/04/2022,08:09:07,0.169,0.0,0.171,0.003
19/04/2022,08:10:06,0.174,0.0,0.174,0.003
19/04/2022,08:11:06,0.178,0.0,0.177,0.003
19/04/2022,08:12:06,0.183,0.0,0.18,0.003
19/04/2022,08:13:05,0.185,0.0,0.183,0.003
19/04/2022,08:14:14,0.186,0.0,0.186,0.003
19/04/2022,08:15:06,0.183,0.0,0.189,0.003
19/04/2022,08:16:06,0.177,0.0,0.192,0.003
19/04/2022,08:17:06,0.169,0.0,0.195,0.003
19/04/2022,08:18:06,0.160,0.0,0.198,0.003
19/04/2022,08:19:06,0.153,0.0,0.2,0.002
19/04/2022,08:20:07,0.147,0.0,0.203,0.003
19/04/2022,08:21:06,0.144,0.0,0.205,0.002
19/04/2022,08:22:06,0.142,0.0,0.207,0.002
19/04/2022,08:23:06,0.142,0.0,0.21,0.003
19/04/2022,08:24:06,0.145,0.0,0.212,0.002
19/04/2022,08:25:06,0.147,0.0,0.215,0.003
19/04/2022,08:26:05,0.151,0.0,0.217,0.002
19/04/2022,08:27:06,0.154,0.0,0.22,0.003
19/04/2022,08:28:05,0.158,0.0,0.222,0.002
19/04/2022,08:29:06,0.162,0.0,0.225,0.003
19/04/2022,08:30:06,0.167,0.0,0.228,0.003
19/04/2022,08:31:06,0.173,0.0,0.231,0.003
19/04/2022,08:32:06,0.178,0.0,0.234,0.003
19/04/2022,08:33:05,0.186,0.0,0.237,0.003
19/04/2022,08:34:06,0.192,0.0,0.24,0.003
19/04/2022,08:35:14,0.198,0.0,0.243,0.003
19/04/2022,08:36:05,0.206,0.0,0.246,0.003
19/04/2022,08:37:06,0.215,0.0,0.25,0.004
19/04/2022,08:38:14,0.226,1.0,0.254,0.004
19/04/2022,08:39:05,0.232,1.0,0.257,0.003
19/04/2022,08:40:06,0.236,1.0,0.261,0.004
19/04/2022,08:41:06,0.235,1.0,0.265,0.004
19/04/2022,08:42:06,0.233,1.0,0.269,0.004
19/04/2022,08:43:06,0.235,1.0,0.273,0.004
19/04/2022,08:44:06,0.241,1.0,0.277,0.004
19/04/2022,08:45:15,0.247,1.0,0.282,0.005
19/04/2022,08:46:06,0.249,1.0,0.285,0.003
19/04/2022,08:47:06,0.251,1.0,0.289,0.004
19/04/2022,08:48:06,0.253,1.0,0.293,0.004
19/04/2022,08:49:06,0.258,1.0,0.298,0.005
19/04/2022,08:50:06,0.286,1.0,0.302,0.004
19/04/2022,08:51:05,0.399,1.0,0.308,0.006
19/04/2022,08:52:05,0.444,1.0,0.315,0.007
19/04/2022,08:53:06,0.482,1.0,0.322,0.007
19/04/2022,08:54:05,0.517,1.0,0.331,0.009
19/04/2022,08:55:05,0.511,1.0,0.339,0.008
19/04/2022,08:56:06,0.451,1.0,0.348,0.009
19/04/2022,08:57:06,0.447,1.0,0.355,0.007
19/04/2022,08:58:06,0.448,1.0,0.363,0.008
19/04/2022,08:59:06,0.459,1.0,0.37,0.007
19/04/2022,09:00:05,0.522,1.0,0.379,0.009
19/04/2022,09:01:06,0.449,1.0,0.387,0.008
19/04/2022,09:02:06,0.411,1.0,0.394,0.007
19/04/2022,09:03:06,0.394,1.0,0.401,0.007
19/04/2022,09:04:06,0.384,1.0,0.407,0.006
19/04/2022,09:05:05,0.379,1.0,0.413,0.006
19/04/2022,09:06:14,0.379,1.0,0.421,0.008
19/04/2022,09:08:07,0.376,1.0,0.432,0.011
19/04/2022,09:09:14,0.370,1.0,0.439,0.007
19/04/2022,09:10:05,0.363,1.0,0.445,0.006
19/04/2022,09:11:06,0.349,1.0,0.451,0.006
19/04/2022,09:12:06,0.333,1.0,0.456,0.005
19/04/2022,09:13:06,0.321,1.0,0.462,0.006
19/04/2022,09:14:06,0.310,1.0,0.467,0.005
19/04/2022,09:15:06,0.300,1.0,0.472,0.005
19/04/2022,09:16:14,0.296,1.0,0.478,0.006
19/04/2022,09:17:06,0.293,1.0,0.482,0.004
19/04/2022,09:18:06,0.297,1.0,0.487,0.005
19/04/2022,09:19:06,0.303,1.0,0.492,0.005
19/04/2022,09:20:06,0.310,1.0,0.497,0.005
19/04/2022,09:21:06,0.321,1.0,0.502,0.005
19/04/2022,09:22:06,0.339,1.0,0.508,0.006
19/04/2022,09:23:06,0.362,1.0,0.514,0.006
19/04/2022,09:24:05,0.387,1.0,0.52,0.006
19/04/2022,09:25:18,0.418,1.0,0.528,0.008
19/04/2022,09:27:07,0.464,1.0,0.541,0.013
19/04/2022,09:28:05,0.491,1.0,0.549,0.008
19/04/2022,09:29:06,0.517,1.0,0.558,0.009
19/04/2022,09:30:06,0.537,1.0,0.566,0.008
19/04/2022,09:31:06,0.549,1.0,0.575,0.009
19/04/2022,09:32:06,0.551,1.0,0.585,0.01
19/04/2022,09:33:06,0.554,1.0,0.594,0.009
19/04/2022,09:34:06,0.556,1.0,0.603,0.009
19/04/2022,09:35:06,0.559,1.0,0.612,0.009
19/04/2022,09:36:06,0.560,1.0,0.622,0.01
19/04/2022,09:37:06,0.560,1.0,0.631,0.009
19/04/2022,09:38:06,0.559,1.0,0.64,0.009
19/04/2022,09:39:06,0.557,1.0,0.65,0.01
19/04/2022,09:40:14,0.558,1.0,0.66,0.01
19/04/2022,09:41:06,0.561,1.0,0.668,0.008
19/04/2022,09:42:06,0.563,1.0,0.678,0.01
19/04/2022,09:43:14,0.559,1.0,0.688,0.01
19/04/2022,09:44:05,0.559,1.0,0.696,0.008
19/04/2022,09:45:06,0.564,1.0,0.706,0.01
19/04/2022,09:46:06,0.589,1.0,0.715,0.009
19/04/2022,09:47:06,0.606,1.0,0.725,0.01
19/04/2022,09:48:06,0.722,2.0,0.736,0.011
19/04/2022,09:49:06,0.755,2.0,0.749,0.013
19/04/2022,09:50:14,0.734,2.0,0.763,0.014
19/04/2022,09:51:05,0.930,2.0,0.775,0.012
19/04/2022,09:52:06,1.021,2.0,0.792,0.017
19/04/2022,09:53:06,0.961,2.0,0.809,0.017
19/04/2022,09:54:06,1.005,2.0,0.826,0.017
19/04/2022,09:55:06,1.028,2.0,0.843,0.017
19/04/2022,09:56:05,1.061,2.0,0.861,0.018
19/04/2022,09:57:31,1.037,2.0,0.886,0.025
19/04/2022,09:59:06,1.069,2.0,0.915,0.029
19/04/2022,10:00:15,1.112,3.0,0.935,0.02
19/04/2022,10:02:14,1.023,2.0,0.97,0.035
19/04/2022,10:04:06,1.106,3.0,1.003,0.033
19/04/2022,10:05:06,1.084,2.0,1.021,0.018
19/04/2022,10:06:06,1.073,2.0,1.039,0.018
19/04/2022,10:07:06,1.105,3.0,1.057,0.018
19/04/2022,10:08:06,1.080,2.0,1.076,0.019
19/04/2022,10:09:06,1.017,2.0,1.093,0.017
19/04/2022,10:10:07,1.096,3.0,1.111,0.018
19/04/2022,10:11:14,1.047,2.0,1.131,0.02
19/04/2022,10:12:06,1.025,2.0,1.146,0.015
19/04/2022,10:13:06,1.017,2.0,1.164,0.018
19/04/2022,10:14:06,1.108,3.0,1.182,0.018
19/04/2022,10:15:06,1.105,3.0,1.2,0.018
19/04/2022,10:16:06,1.041,2.0,1.217,0.017
19/04/2022,10:17:06,1.085,2.0,1.235,0.018
19/04/2022,10:18:06,0.911,2.0,1.251,0.016
19/04/2022,10:19:06,1.022,2.0,1.267,0.016
19/04/2022,10:20:06,1.108,3.0,1.284,0.017
19/04/2022,10:21:14,0.980,2.0,1.304,0.02
19/04/2022,10:22:06,0.956,2.0,1.318,0.014
19/04/2022,10:23:06,1.139,3.0,1.335,0.017
19/04/2022,10:24:06,1.171,3.0,1.354,0.019
19/04/2022,10:25:06,1.205,3.0,1.374,0.02
19/04/2022,10:26:06,1.197,3.0,1.394,0.02
19/04/2022,10:27:06,1.203,3.0,1.414,0.02
19/04/2022,10:28:06,1.228,3.0,1.434,0.02
19/04/2022,10:29:19,1.165,3.0,1.458,0.024
19/04/2022,10:31:07,1.182,3.0,1.494,0.036
19/04/2022,10:32:06,0.998,2.0,1.511,0.017
19/04/2022,10:33:06,1.010,2.0,1.527,0.016
19/04/2022,10:34:06,1.094,3.0,1.545,0.018
19/04/2022,10:35:06,1.117,3.0,1.562,0.017
19/04/2022,10:36:06,1.183,3.0,1.581,0.019
19/04/2022,10:37:06,1.034,2.0,1.599,0.018
19/04/2022,10:38:06,0.918,2.0,1.616,0.017
19/04/2022,10:39:06,0.889,2.0,1.631,0.015
19/04/2022,10:40:06,0.882,2.0,1.646,0.015
19/04/2022,10:41:14,0.899,2.0,1.663,0.017
19/04/2022,10:42:06,0.978,2.0,1.676,0.013
19/04/2022,10:43:06,1.194,3.0,1.695,0.019
19/04/2022,10:44:06,1.215,3.0,1.716,0.021